IU7LMH-13 Weather Reports


Display with metric or nautical units.
time (UTC)temp
F
wind
direction
speed
MPH
gust
MPH
rain 1hr
in
rain 24hr
in
rain mn
in
humidity
%
barometer
mb
20260903135942 95 45 3.0 4.0 0.00 0.17 0.00 30 1014.0
20260903135743 96 68 3.0 6.0 0.00 0.17 0.00 31 1014.0
20260903135548 97 22 6.0 11.0 0.00 0.18 0.00 30 1013.9
20260903135343 97 270 4.0 7.0 0.00 0.18 0.00 31 1014.1
20260903135143 97 202 3.0 8.0 0.00 0.18 0.00 31 1014.0
20260903134944 97 22 4.0 8.0 0.00 0.20 0.00 32 1013.9
20260903134550 96 45 2.0 4.0 0.00 0.21 0.00 31 1013.9
20260903134342 96 315 3.0 7.0 0.00 0.21 0.00 31 1014.1
20260903134143 96 202 3.0 6.0 0.00 0.22 0.00 32 1014.0
20260903133944 96 338 3.0 6.0 0.00 0.22 0.00 31 1014.0
20260903133743 97 68 4.0 8.0 0.00 0.24 0.00 31 1014.0
20260903133546 96 45 3.0 7.0 0.00 0.28 0.00 31 1014.0
20260903133342 96 315 2.0 4.0 0.00 0.34 0.00 31 1014.1
20260903133142 96 338 3.0 7.0 0.00 0.36 0.00 31 1014.1
20260903132943 96 45 3.0 7.0 0.00 0.37 0.00 32 1014.2
20260903132743 95 0 2.0 6.0 0.00 0.37 0.00 34 1014.0
20260903132548 96 292 7.0 11.0 0.00 0.37 0.00 32 1014.2
20260903132142 96 338 4.0 8.0 0.00 0.37 0.00 32 1014.0
20260903131941 96 292 5.0 11.0 0.00 0.37 0.00 32 1014.2
20260903131744 96 315 6.0 9.0 0.00 0.37 0.00 33 1014.0
20260903131342 97 270 4.0 8.0 0.00 0.37 0.00 32 1014.2
20260903130944 97 22 5.0 8.0 0.00 0.37 0.00 32 1014.3
20260903130743 96 90 2.0 4.0 0.00 0.37 0.00 33 1014.1
20260903130546 96 315 4.0 6.0 0.00 0.37 0.00 34 1014.2
20260903130343 96 22 3.0 6.0 0.00 0.37 0.00 33 1014.3
20260903125743 96 90 5.0 8.0 0.00 0.37 0.00 33 1014.4
20260903125549 96 0 5.0 8.0 0.00 0.37 0.00 33 1014.2
20260903125142 96 45 4.0 7.0 0.00 0.37 0.00 33 1014.2
20260903124943 95 315 2.0 6.0 0.00 0.37 0.00 34 1014.3
20260903124742 95 0 6.0 9.0 0.00 0.37 0.00 33 1014.2
20260903124549 96 0 5.0 11.0 0.00 0.37 0.00 32 1014.3
20260903124342 96 338 2.0 4.0 0.00 0.37 0.00 34 1014.4
20260903124143 96 292 5.0 11.0 0.00 0.37 0.00 34 1014.4
20260903123944 97 135 6.0 11.0 0.00 0.37 0.00 32 1014.2
20260903123743 97 292 2.0 4.0 0.00 0.37 0.00 33 1014.4
20260903123545 97 202 2.0 4.0 0.00 0.37 0.00 33 1014.3
20260903123342 96 248 4.0 7.0 0.00 0.37 0.00 33 1014.5
20260903122941 95 270 6.0 11.0 0.00 0.37 0.00 33 1014.5
20260903122742 95 338 5.0 9.0 0.00 0.37 0.00 33 1014.5
20260903122549 97 22 4.0 6.0 0.00 0.37 0.00 32 1014.5
20260903122342 97 68 4.0 7.0 0.00 0.37 0.00 32 1014.4
20260903122142 97 292 2.0 4.0 0.00 0.37 0.00 31 1014.4
20260903121942 97 292 3.0 6.0 0.00 0.37 0.00 32 1014.6
20260903121743 96 315 2.0 4.0 0.00 0.37 0.00 32 1014.6
20260903121342 96 338 2.0 4.0 0.00 0.37 0.00 31 1014.4
20260903121142 96 338 3.0 7.0 0.00 0.37 0.00 31 1014.5
20260903120944 96 338 6.0 11.0 0.00 0.37 0.00 31 1014.5
20260903120742 97 68 6.0 11.0 0.00 0.37 0.00 31 1014.5
20260903120546 96 292 2.0 4.0 0.00 0.37 0.00 31 1014.7
20260903120343 96 315 1.0 2.0 0.00 0.37 0.00 31 1014.6
20260903120142 96 315 2.0 4.0 0.00 0.37 0.00 32 1014.7
20260903115743 96 292 4.0 11.0 0.00 0.37 0.00 31 1014.6
20260903115549 96 315 2.0 4.0 0.00 0.37 0.00 33 1014.6
20260903115342 95 0 2.0 4.0 0.00 0.37 0.00 31 1014.7
20260903115143 96 315 5.0 7.0 0.00 0.37 0.00 31 1014.7
20260903114942 96 0 3.0 6.0 0.00 0.37 0.00 31 1014.9
20260903114743 95 338 3.0 7.0 0.00 0.37 0.00 31 1014.9
20260903114549 95 315 7.0 13.0 0.00 0.37 0.00 32 1014.9
20260903114343 95 315 6.0 11.0 0.00 0.37 0.00 32 1014.8
20260903113944 95 315 6.0 9.0 0.00 0.37 0.00 32 1014.7
20260903113744 95 292 4.0 8.0 0.00 0.37 0.00 33 1015.0
20260903113546 95 315 7.0 9.0 0.00 0.37 0.00 31 1014.8
20260903113342 95 338 3.0 6.0 0.00 0.37 0.00 33 1015.0
20260903113143 95 338 4.0 7.0 0.00 0.37 0.00 32 1014.8
20260903112942 95 0 4.0 7.0 0.00 0.37 0.00 33 1014.9
20260903112742 96 292 8.0 11.0 0.00 0.37 0.00 31 1014.9
20260903112547 96 315 2.0 6.0 0.00 0.37 0.00 32 1015.1
20260903112343 96 0 4.0 7.0 0.00 0.37 0.00 33 1015.0
20260903112143 95 315 4.0 7.0 0.00 0.37 0.00 34 1015.2
20260903111942 95 292 5.0 11.0 0.00 0.37 0.00 33 1014.9
20260903111742 96 0 7.0 11.0 0.00 0.37 0.00 33 1015.2
20260903111548 96 90 3.0 6.0 0.00 0.37 0.00 32 1015.1
20260903111342 96 338 3.0 4.0 0.00 0.37 0.00 30 1015.0
20260903111143 95 0 2.0 4.0 0.00 0.37 0.00 31 1015.1
20260903110943 95 292 2.0 4.0 0.00 0.37 0.00 30 1015.0
20260903110743 95 315 5.0 9.0 0.00 0.37 0.00 30 1015.0
20260903110547 94 158 3.0 4.0 0.00 0.37 0.00 32 1015.3
20260903110143 95 315 6.0 11.0 0.00 0.37 0.00 32 1015.1
20260903105942 94 270 2.0 4.0 0.00 0.37 0.00 33 1015.2
20260903105743 94 292 3.0 6.0 0.00 0.37 0.00 34 1015.2
20260903105549 94 315 7.0 11.0 0.00 0.37 0.00 32 1015.3
20260903105343 94 292 3.0 4.0 0.00 0.37 0.00 34 1015.2
20260903105142 94 292 4.0 7.0 0.00 0.37 0.00 33 1015.3
20260903104943 93 45 4.0 7.0 0.00 0.37 0.00 33 1015.3
20260903104743 93 315 7.0 8.0 0.00 0.37 0.00 36 1015.2
20260903104549 93 270 6.0 9.0 0.00 0.37 0.00 35 1015.4
20260903104343 93 292 7.0 9.0 0.00 0.37 0.00 34 1015.4
20260903104144 94 292 8.0 11.0 0.00 0.37 0.00 35 1015.5
20260903103945 94 315 6.0 11.0 0.00 0.37 0.00 36 1015.6
20260903103743 94 315 2.0 4.0 0.00 0.37 0.00 36 1015.6
20260903103547 94 338 7.0 11.0 0.00 0.37 0.00 37 1015.7
20260903103343 94 338 3.0 6.0 0.00 0.37 0.00 36 1015.6
20260903103143 94 112 2.0 4.0 0.00 0.37 0.00 36 1015.7
20260903102943 94 292 3.0 6.0 0.00 0.37 0.00 36 1015.6
20260903102744 94 292 2.0 4.0 0.00 0.37 0.00 36 1015.5
20260903102549 94 315 2.0 6.0 0.00 0.37 0.00 34 1015.6
20260903102343 93 315 5.0 8.0 0.00 0.37 0.00 36 1016.0
20260903102143 93 45 4.0 6.0 0.00 0.37 0.00 37 1015.7
20260903101942 93 0 3.0 4.0 0.00 0.37 0.00 38 1015.7
20260903101743 93 292 4.0 6.0 0.00 0.37 0.00 37 1015.8
20260903101343 92 0 4.0 7.0 0.00 0.37 0.00 38 1015.7
20260903101143 92 315 4.0 7.0 0.00 0.37 0.00 38 1015.7
20260903100945 92 338 3.0 7.0 0.00 0.37 0.00 39 1016.1
20260903100743 93 292 5.0 7.0 0.00 0.37 0.00 40 1015.9
20260903100545 93 292 2.0 4.0 0.00 0.37 0.00 39 1015.7
20260903100343 92 315 4.0 8.0 0.00 0.37 0.00 38 1016.1
20260903100143 91 22 1.0 2.0 0.00 0.37 0.00 39 1016.0
20260903095942 91 315 3.0 4.0 0.00 0.37 0.00 38 1016.1
20260903095743 91 270 4.0 8.0 0.00 0.37 0.00 38 1016.1
20260903095549 91 292 5.0 9.0 0.00 0.37 0.00 36 1016.1
20260903095143 92 338 5.0 8.0 0.00 0.37 0.00 37 1016.2
20260903094942 92 315 6.0 9.0 0.00 0.37 0.00 37 1016.1
20260903094744 92 315 3.0 6.0 0.00 0.37 0.00 39 1016.0
20260903094548 93 315 5.0 8.0 0.00 0.37 0.00 37 1016.2
20260903094343 93 0 4.0 7.0 0.00 0.37 0.00 38 1016.2
20260903094144 92 292 3.0 7.0 0.00 0.37 0.00 38 1016.3
20260903093945 92 0 1.0 2.0 0.00 0.37 0.00 38 1016.2
20260903093744 92 315 3.0 7.0 0.00 0.37 0.00 39 1016.4
20260903093344 92 45 4.0 6.0 0.00 0.37 0.00 39 1016.2
20260903093144 92 45 2.0 4.0 0.00 0.37 0.00 40 1016.5
20260903092943 91 292 4.0 7.0 0.00 0.37 0.00 40 1016.4
20260903092548 92 292 3.0 4.0 0.00 0.37 0.00 39 1016.3
20260903092344 92 315 2.0 4.0 0.00 0.37 0.00 40 1016.4
20260903092144 92 315 2.0 4.0 0.00 0.37 0.00 41 1016.3
20260903091743 91 45 1.0 2.0 0.00 0.37 0.00 42 1016.4
20260903091549 90 315 1.0 2.0 0.00 0.37 0.00 42 1016.6
20260903091344 90 270 2.0 4.0 0.00 0.37 0.00 43 1016.6
20260903091144 90 292 5.0 9.0 0.00 0.37 0.00 42 1016.5
20260903090945 90 270 4.0 4.0 0.00 0.37 0.00 42 1016.7
20260903090744 90 315 4.0 9.0 0.00 0.37 0.00 45 1016.6
20260903090546 90 248 2.0 4.0 0.00 0.37 0.00 46 1016.5
20260903090342 90 292 3.0 4.0 0.00 0.37 0.00 42 1016.5
20260903090143 89 0 2.0 4.0 0.00 0.37 0.00 44 1016.5
20260903085942 89 315 3.0 6.0 0.00 0.37 0.00 46 1016.6
20260903085744 89 45 4.0 6.0 0.00 0.37 0.00 45 1016.6
20260903085550 89 315 5.0 7.0 0.00 0.37 0.00 46 1016.5
20260903085343 89 315 4.0 9.0 0.00 0.37 0.00 46 1016.5
20260903085144 89 270 3.0 6.0 0.00 0.37 0.00 45 1016.6
20260903084943 89 338 2.0 4.0 0.00 0.37 0.00 46 1016.7
20260903084743 89 292 3.0 6.0 0.00 0.37 0.00 47 1016.6
20260903084548 88 90 4.0 6.0 0.00 0.37 0.00 47 1016.6
20260903084344 87 248 4.0 7.0 0.00 0.37 0.00 49 1016.6
20260903084142 87 292 4.0 8.0 0.00 0.37 0.00 47 1016.8
20260903083945 87 315 5.0 8.0 0.00 0.37 0.00 47 1016.5
20260903083744 88 292 5.0 7.0 0.00 0.37 0.00 47 1016.6
20260903083546 88 315 4.0 6.0 0.00 0.37 0.00 47 1016.4
20260903083343 87 292 3.0 6.0 0.00 0.37 0.00 48 1016.7
20260903083144 87 292 4.0 7.0 0.00 0.37 0.00 47 1016.7
20260903082942 88 338 4.0 9.0 0.00 0.37 0.00 47 1016.6
20260903082742 88 248 4.0 8.0 0.00 0.37 0.00 48 1016.7
20260903082549 87 270 3.0 4.0 0.00 0.37 0.00 46 1016.5
20260903082344 87 315 4.0 6.0 0.00 0.37 0.00 49 1016.4
20260903081548 86 292 7.0 8.0 0.00 0.37 0.00 47 1016.5
20260903081342 86 315 2.0 4.0 0.00 0.37 0.00 50 1016.5
20260903081142 86 292 3.0 4.0 0.00 0.37 0.00 50 1016.5
20260903080944 86 315 6.0 8.0 0.00 0.37 0.00 48 1016.6
20260903080743 86 292 2.0 4.0 0.00 0.37 0.00 51 1016.6
20260903080544 85 315 6.0 9.0 0.00 0.37 0.00 49 1016.7
20260903080343 85 292 4.0 6.0 0.00 0.37 0.00 49 1016.6
20260903080144 85 315 6.0 8.0 0.00 0.37 0.00 49 1016.5
20260903075943 85 292 5.0 6.0 0.00 0.37 0.00 49 1016.5
20260903075743 85 270 4.0 7.0 0.00 0.37 0.00 51 1016.4
20260903075548 85 315 6.0 9.0 0.00 0.37 0.00 49 1016.5
20260903075342 85 292 7.0 11.0 0.00 0.37 0.00 49 1016.5
20260903075143 85 292 8.0 11.0 0.00 0.37 0.00 50 1016.4
20260903074941 85 292 7.0 9.0 0.00 0.37 0.00 51 1016.4
20260903074742 84 292 7.0 11.0 0.00 0.37 0.00 50 1016.4
20260903074548 84 315 5.0 9.0 0.00 0.37 0.00 51 1016.5
20260903074342 84 315 5.0 9.0 0.00 0.37 0.00 52 1016.4
20260903073944 84 292 5.0 7.0 0.00 0.37 0.00 54 1016.2
20260903073743 84 292 4.0 6.0 0.00 0.37 0.00 54 1016.3
20260903073342 84 292 4.0 7.0 0.00 0.37 0.00 55 1016.2
20260903072942 84 270 5.0 8.0 0.00 0.37 0.00 53 1016.4
20260903072342 83 292 4.0 7.0 0.00 0.37 0.00 59 1016.5
20260903072141 83 292 3.0 4.0 0.00 0.37 0.00 59 1016.4
20260903071741 83 270 3.0 4.0 0.00 0.37 0.00 60 1016.3
20260903071548 83 270 4.0 6.0 0.00 0.37 0.00 57 1016.2
20260903071144 83 292 3.0 4.0 0.00 0.37 0.00 61 1016.2
20260903070945 82 292 4.0 6.0 0.00 0.37 0.00 59 1016.5
20260903070743 82 270 3.0 4.0 0.00 0.37 0.00 60 1016.4
20260903070343 82 292 3.0 4.0 0.00 0.37 0.00 61 1016.1
20260903070142 82 292 2.0 4.0 0.00 0.37 0.00 62 1016.3
20260903065942 82 315 3.0 4.0 0.00 0.37 0.00 62 1016.3
20260903065742 82 292 3.0 4.0 0.00 0.37 0.00 63 1016.5
20260903065547 82 292 2.0 4.0 0.00 0.37 0.00 63 1016.3
20260903065141 82 315 4.0 6.0 0.00 0.37 0.00 62 1016.4
20260903064942 82 270 3.0 4.0 0.00 0.37 0.00 62 1016.4
20260903064548 82 270 4.0 6.0 0.00 0.37 0.00 61 1016.5
20260903064342 82 248 2.0 4.0 0.00 0.37 0.00 62 1016.3
20260903063944 81 270 4.0 4.0 0.00 0.37 0.00 61 1016.5
20260903063742 82 270 2.0 2.0 0.00 0.37 0.00 63 1016.4
20260903063546 82 315 2.0 4.0 0.00 0.37 0.00 64 1016.4
20260903063141 81 270 1.0 2.0 0.00 0.37 0.00 65 1016.6
20260903062942 80 292 2.0 2.0 0.00 0.37 0.00 65 1016.5
20260903062743 80 292 0.0 2.0 0.00 0.37 0.00 66 1016.5
20260903062550 80 292 2.0 2.0 0.00 0.37 0.00 65 1016.5
20260903062343 79 292 1.0 2.0 0.00 0.37 0.00 67 1016.5
20260903062143 79 338 3.0 6.0 0.00 0.37 0.00 66 1016.4
20260903061943 79 292 1.0 2.0 0.00 0.37 0.00 69 1016.4
20260903061742 79 315 1.0 2.0 0.00 0.37 0.00 70 1016.4
20260903061549 78 292 0.0 2.0 0.00 0.37 0.00 71 1016.5
20260903061142 78 270 2.0 4.0 0.00 0.37 0.00 69 1016.5
20260903060945 77 292 2.0 2.0 0.00 0.37 0.00 71 1016.4
20260903060743 77 292 2.0 4.0 0.00 0.37 0.00 72 1016.6
20260903060545 77 292 0.0 0.0 0.00 0.37 0.00 74 1016.5
20260903060342 77 292 0.0 0.0 0.00 0.37 0.00 74 1016.7
20260903060143 76 292 0.0 0.0 0.00 0.37 0.00 74 1016.7
20260903055942 76 315 0.0 0.0 0.00 0.37 0.00 75 1016.6
20260903055743 76 315 1.0 2.0 0.00 0.37 0.00 75 1016.6
20260903055549 76 292 0.0 2.0 0.00 0.37 0.00 75 1016.5
20260903055342 75 292 2.0 2.0 0.00 0.37 0.00 75 1016.5
20260903055141 75 292 2.0 2.0 0.00 0.37 0.00 74 1016.5
20260903054942 75 292 2.0 2.0 0.00 0.37 0.00 74 1016.6
20260903054741 75 292 1.0 2.0 0.00 0.37 0.00 75 1016.6
20260903054342 75 315 0.0 0.0 0.00 0.37 0.00 75 1016.7
20260903054143 75 292 0.0 2.0 0.00 0.37 0.00 74 1016.5
20260903053944 76 315 0.0 2.0 0.00 0.37 0.00 74 1016.7
20260903053743 76 315 0.0 0.0 0.00 0.37 0.00 75 1016.7
20260903053547 75 292 0.0 0.0 0.00 0.37 0.00 75 1016.6
20260903053341 75 292 0.0 0.0 0.00 0.37 0.00 75 1016.5
20260903053141 74 292 0.0 0.0 0.00 0.37 0.00 75 1016.5
20260903052942 74 270 1.0 2.0 0.00 0.37 0.00 75 1016.5
20260903052742 74 270 1.0 2.0 0.00 0.37 0.00 75 1016.4
20260903052341 73 292 2.0 4.0 0.00 0.37 0.00 75 1016.5
20260903052141 73 292 2.0 2.0 0.00 0.37 0.00 76 1016.5
20260903051943 73 292 2.0 4.0 0.00 0.37 0.00 77 1016.5
20260903051743 73 315 2.0 2.0 0.00 0.37 0.00 77 1016.5
20260903051612 72 315 2.0 2.0 0.00 0.37 0.00 78 1016.4
20260903051342 72 315 1.0 2.0 0.00 0.37 0.00 78 1016.3
20260903051146 72 315 2.0 2.0 0.00 0.37 0.00 78 1016.4
20260903050944 72 315 1.0 2.0 0.00 0.37 0.00 79 1016.4
20260903050744 72 315 1.0 2.0 0.00 0.37 0.00 79 1016.5
20260903050546 72 315 2.0 2.0 0.00 0.37 0.00 79 1016.4
20260903045743 73 315 1.0 2.0 0.00 0.37 0.00 77 1016.4
20260903045549 73 292 2.0 4.0 0.00 0.37 0.00 76 1016.5
20260903045343 72 315 4.0 6.0 0.00 0.37 0.00 76 1016.2
20260903045144 72 315 3.0 4.0 0.00 0.37 0.00 78 1016.4
20260903044942 71 315 2.0 4.0 0.00 0.37 0.00 80 1016.4
20260903044743 71 315 3.0 4.0 0.00 0.37 0.00 82 1016.3
20260903044550 71 292 0.0 0.0 0.00 0.37 0.00 82 1016.2
20260903044342 71 315 0.0 2.0 0.00 0.37 0.00 82 1016.4
20260903043945 71 338 0.0 2.0 0.00 0.37 0.00 82 1016.4
20260903043742 71 292 2.0 4.0 0.00 0.37 0.00 82 1016.4
20260903043546 71 270 1.0 2.0 0.00 0.37 0.00 83 1016.3
20260903043343 71 292 2.0 2.0 0.00 0.37 0.00 83 1016.3
20260903043144 71 292 2.0 4.0 0.00 0.37 0.00 83 1016.1
20260903042943 71 270 2.0 2.0 0.00 0.37 0.00 84 1016.2
20260903042743 71 292 2.0 4.0 0.00 0.37 0.00 84 1016.2
20260903042550 71 315 1.0 2.0 0.00 0.37 0.00 84 1016.4
20260903042341 71 315 2.0 2.0 0.00 0.37 0.00 83 1016.2
20260903042142 71 292 2.0 2.0 0.00 0.37 0.00 83 1016.2
20260903041942 71 292 2.0 2.0 0.00 0.37 0.00 83 1016.1
20260903041744 71 292 2.0 4.0 0.00 0.37 0.00 84 1016.1
20260903041556 71 292 3.0 4.0 0.00 0.37 0.00 84 1016.3
20260903040943 71 292 2.0 4.0 0.00 0.37 0.00 85 1016.2
20260903040742 71 270 2.0 4.0 0.00 0.37 0.00 85 1016.2
20260903040547 71 292 2.0 4.0 0.00 0.37 0.00 85 1016.2
20260903040055 71 248 2.0 2.0 0.00 0.37 0.00 85 1016.3
20260903035644 71 292 3.0 4.0 0.00 0.37 0.00 84 1016.0
20260903035442 71 270 2.0 2.0 0.00 0.37 0.00 84 1016.1
20260903035243 71 248 1.0 2.0 0.00 0.37 0.00 84 1016.2
20260903035046 72 248 2.0 2.0 0.00 0.37 0.00 83 1016.2
20260903034843 72 248 2.0 2.0 0.00 0.37 0.00 83 1016.2
20260903034652 72 270 1.0 2.0 0.00 0.37 0.00 83 1016.1
20260903034441 72 292 1.0 2.0 0.00 0.37 0.00 83 1016.4
20260903034048 72 315 2.0 2.0 0.00 0.37 0.00 83 1016.2
20260903033842 71 292 2.0 2.0 0.00 0.37 0.00 84 1016.2
20260903033642 71 292 2.0 2.0 0.00 0.37 0.00 84 1016.2
20260903033442 71 292 2.0 2.0 0.00 0.37 0.00 84 1016.2
20260903033242 71 292 2.0 2.0 0.00 0.37 0.00 85 1016.0
20260903033049 71 270 2.0 4.0 0.00 0.37 0.00 86 1016.3
20260903032844 71 292 3.0 4.0 0.00 0.37 0.00 87 1016.3
20260903032643 70 292 3.0 4.0 0.00 0.37 0.00 88 1016.0
20260903032443 70 292 2.0 4.0 0.00 0.37 0.00 88 1016.2
20260903032243 70 292 2.0 4.0 0.00 0.37 0.00 89 1016.1
20260903032046 70 292 2.0 4.0 0.00 0.37 0.00 89 1016.1
20260903031844 70 292 2.0 2.0 0.00 0.37 0.00 90 1016.2
20260903031643 70 292 1.0 2.0 0.00 0.37 0.00 90 1016.2
20260903031443 70 315 1.0 2.0 0.00 0.37 0.00 89 1016.0
20260903031243 70 315 1.0 2.0 0.00 0.37 0.00 90 1016.0
20260903030444 71 315 2.0 2.0 0.00 0.37 0.00 89 1016.3
20260903030243 71 315 1.0 2.0 0.00 0.37 0.00 89 1016.3
20260903030050 71 315 1.0 2.0 0.00 0.37 0.00 89 1016.2
20260903025841 71 315 0.0 0.0 0.00 0.37 0.00 89 1016.2
20260903025643 71 315 0.0 0.0 0.00 0.37 0.00 89 1016.2
20260903025443 71 315 0.0 0.0 0.00 0.37 0.00 88 1016.2
20260903025046 71 292 0.0 0.0 0.00 0.37 0.00 88 1016.3
20260903024843 71 292 0.0 0.0 0.00 0.37 0.00 88 1016.2
20260903024643 71 292 0.0 2.0 0.00 0.37 0.00 88 1016.2
20260903024442 71 315 0.0 0.0 0.00 0.37 0.00 88 1016.3
20260903024244 71 315 0.0 2.0 0.00 0.37 0.00 88 1016.4
20260903024051 71 338 0.0 0.0 0.00 0.37 0.00 88 1016.3
20260903023843 71 338 0.0 0.0 0.00 0.37 0.00 88 1016.1
20260903023642 71 0 0.0 0.0 0.00 0.37 0.00 88 1016.1
20260903023049 71 0 0.0 0.0 0.00 0.37 0.00 87 1016.2
20260903022843 71 0 0.0 0.0 0.00 0.37 0.00 87 1016.2
20260903022443 72 0 0.0 0.0 0.00 0.37 0.00 87 1016.2
20260903022243 72 0 0.0 0.0 0.00 0.37 0.00 87 1016.4
20260903022048 72 22 1.0 2.0 0.00 0.37 0.00 87 1016.3
20260903021843 72 22 1.0 2.0 0.00 0.37 0.00 86 1016.4
20260903021642 72 315 0.0 0.0 0.00 0.37 0.00 86 1016.3
20260903021445 72 270 0.0 0.0 0.00 0.37 0.00 86 1016.3
20260903021244 72 270 0.0 0.0 0.00 0.37 0.00 85 1016.3
20260903021051 72 270 0.0 0.0 0.00 0.37 0.00 85 1016.2
20260903020843 72 270 0.0 0.0 0.00 0.37 0.00 85 1016.4
20260903020642 72 270 0.0 0.0 0.00 0.37 0.00 85 1016.3
20260903020243 72 270 0.0 0.0 0.00 0.37 0.00 85 1016.3
20260903020050 72 270 0.0 0.0 0.00 0.37 0.00 85 1016.3
20260903015842 72 270 0.0 0.0 0.00 0.37 0.00 85 1016.3
20260903015645 72 270 0.0 0.0 0.00 0.37 0.00 85 1016.2
20260903015443 72 270 1.0 2.0 0.00 0.37 0.00 85 1016.4
20260903015244 73 270 2.0 2.0 0.00 0.37 0.00 85 1016.2
20260903015048 73 292 2.0 2.0 0.00 0.37 0.00 85 1016.2
20260903014842 73 270 2.0 2.0 0.00 0.37 0.00 85 1016.4
20260903014643 73 270 2.0 2.0 0.00 0.37 0.00 84 1016.1
20260903014243 73 270 2.0 2.0 0.00 0.37 0.00 85 1016.3
20260903013843 72 270 2.0 2.0 0.00 0.37 0.00 85 1016.3
20260903013443 72 270 1.0 2.0 0.00 0.37 0.00 85 1016.3
20260903013051 73 270 2.0 2.0 0.00 0.37 0.00 85 1016.2
20260903012843 73 248 2.0 2.0 0.00 0.37 0.00 85 1016.2
20260903012644 73 270 1.0 2.0 0.00 0.37 0.00 85 1016.3
20260903012443 73 248 2.0 4.0 0.00 0.37 0.00 85 1016.1
20260903012244 73 248 2.0 4.0 0.00 0.37 0.00 85 1016.3
20260903012046 73 248 2.0 2.0 0.00 0.37 0.00 85 1016.5
20260903011844 73 248 2.0 2.0 0.00 0.37 0.00 85 1016.5
20260903011642 73 270 2.0 2.0 0.00 0.37 0.00 85 1016.2
20260903011443 73 270 2.0 2.0 0.00 0.37 0.00 85 1016.4
20260903011243 73 270 2.0 4.0 0.00 0.37 0.00 85 1016.4
20260903010843 73 270 2.0 2.0 0.00 0.37 0.00 85 1016.3
20260903010443 73 248 2.0 2.0 0.00 0.37 0.00 85 1016.5
20260903010243 73 270 2.0 2.0 0.00 0.37 0.00 86 1016.4
20260903010050 73 270 2.0 2.0 0.00 0.37 0.00 86 1016.4
20260903005843 73 270 2.0 2.0 0.00 0.37 0.00 86 1016.4
20260903005642 73 270 2.0 2.0 0.00 0.37 0.00 86 1016.5
20260903005243 72 270 2.0 2.0 0.00 0.37 0.00 86 1016.5
20260903005046 72 270 2.0 2.0 0.00 0.37 0.00 87 1016.5
20260903004842 72 270 2.0 2.0 0.00 0.37 0.00 87 1016.5
20260903004643 72 270 2.0 2.0 0.00 0.37 0.00 87 1016.4
20260903004442 72 248 0.0 0.0 0.00 0.37 0.00 87 1016.4
20260903004244 72 270 0.0 0.0 0.00 0.37 0.00 87 1016.3
20260903004049 72 248 0.0 0.0 0.00 0.37 0.00 87 1016.3
20260903003842 72 270 1.0 2.0 0.00 0.37 0.00 87 1016.5
20260903003643 72 270 1.0 2.0 0.00 0.37 0.00 87 1016.3
20260903003442 72 248 1.0 2.0 0.00 0.37 0.00 88 1016.3
20260903002842 72 248 1.0 2.0 0.00 0.37 0.00 88 1016.5
20260903002641 72 270 1.0 2.0 0.00 0.37 0.00 88 1016.4
20260903002444 72 292 2.0 2.0 0.00 0.37 0.00 88 1016.4
20260903002243 72 292 2.0 2.0 0.00 0.37 0.00 89 1016.5
20260903002046 72 292 2.0 2.0 0.00 0.37 0.00 89 1016.5
20260903001842 72 292 2.0 2.0 0.00 0.37 0.00 89 1016.6
20260903001642 72 270 2.0 2.0 0.00 0.37 0.00 89 1016.4
20260903001442 72 248 2.0 2.0 0.00 0.37 0.00 89 1016.6
20260903001243 72 270 2.0 2.0 0.00 0.37 0.00 89 1016.5
20260903001050 72 270 2.0 2.0 0.00 0.37 0.00 89 1016.6
20260903000643 72 292 2.0 2.0 0.00 0.37 0.00 89 1016.5
20260903000442 72 292 2.0 2.0 0.00 0.37 0.00 89 1016.4
20260903000244 72 292 2.0 2.0 0.00 0.37 0.00 89 1016.5
20260903000049 72 292 2.0 2.0 0.00 0.37 0.00 89 1016.7
20260902235643 72 292 2.0 2.0 0.00 0.37 0.00 88 1016.5
20260902235243 72 292 0.0 2.0 0.00 0.37 0.00 88 1016.7
20260902234842 72 292 0.0 0.0 0.00 0.37 0.00 88 1016.5
20260902234642 72 292 0.0 0.0 0.00 0.37 0.00 88 1016.5
20260902234441 72 292 0.0 0.0 0.00 0.37 0.00 88 1016.5
20260902234048 72 315 2.0 2.0 0.00 0.37 0.00 87 1016.7
20260902233842 72 315 1.0 2.0 0.00 0.37 0.00 87 1016.5
20260902233644 72 315 2.0 2.0 0.00 0.37 0.00 87 1016.6
20260902233443 72 315 2.0 2.0 0.00 0.37 0.00 87 1016.7
20260902233049 72 292 0.0 0.0 0.00 0.37 0.00 87 1016.6
20260902232842 73 292 0.0 2.0 0.00 0.37 0.00 87 1016.7
20260902232443 73 292 0.0 0.0 0.00 0.37 0.00 87 1016.6
20260902232244 73 292 0.0 0.0 0.00 0.37 0.00 87 1016.7
20260902232046 73 292 0.0 0.0 0.00 0.37 0.00 86 1016.7
20260902231843 73 292 0.0 2.0 0.00 0.37 0.00 86 1016.7
20260902231643 73 292 0.0 2.0 0.00 0.37 0.00 86 1016.6
20260902231442 73 270 0.0 0.0 0.00 0.37 0.00 86 1016.7
20260902231242 73 270 1.0 2.0 0.00 0.37 0.00 86 1016.6
20260902231050 73 270 1.0 2.0 0.00 0.37 0.00 86 1016.6
20260902230843 74 292 1.0 2.0 0.00 0.37 0.00 85 1016.6
20260902230643 74 270 2.0 2.0 0.00 0.37 0.00 85 1016.8
20260902230242 74 292 0.0 0.0 0.00 0.37 0.00 85 1016.8
20260902230051 74 270 1.0 2.0 0.00 0.37 0.00 85 1016.8
20260902225842 74 292 2.0 2.0 0.00 0.37 0.00 85 1016.8
20260902225641 74 292 2.0 2.0 0.00 0.37 0.00 85 1016.9
20260902225444 74 292 2.0 2.0 0.00 0.37 0.00 85 1016.9
20260902225243 74 248 2.0 4.0 0.00 0.37 0.00 85 1016.8
20260902224842 74 270 2.0 2.0 0.00 0.37 0.00 84 1016.8
20260902224643 74 292 2.0 2.0 0.00 0.37 0.00 84 1016.6
20260902224442 74 270 2.0 4.0 0.00 0.37 0.00 84 1016.8
20260902224244 74 270 2.0 4.0 0.00 0.37 0.00 84 1016.8
20260902224049 74 292 2.0 4.0 0.00 0.37 0.00 84 1016.7
20260902223843 74 270 2.0 4.0 0.00 0.37 0.00 84 1016.8
20260902223642 74 248 2.0 2.0 0.00 0.37 0.00 83 1016.7
20260902223443 74 292 2.0 2.0 0.00 0.37 0.00 83 1016.7
20260902223243 74 270 2.0 2.0 0.00 0.37 0.00 83 1016.7
20260902223050 74 270 2.0 2.0 0.00 0.37 0.00 83 1016.8
20260902222644 74 292 2.0 2.0 0.00 0.37 0.00 83 1016.7
20260902222248 74 292 2.0 2.0 0.00 0.37 0.00 83 1016.7
20260902222048 74 315 2.0 4.0 0.00 0.37 0.00 83 1016.9
20260902221842 74 315 3.0 4.0 0.00 0.37 0.00 83 1016.5
20260902221643 74 315 2.0 4.0 0.00 0.37 0.00 83 1016.8
20260902221442 74 315 1.0 2.0 0.00 0.37 0.00 83 1016.7
20260902221243 74 315 3.0 4.0 0.00 0.37 0.00 83 1016.8
20260902220843 74 292 3.0 4.0 0.00 0.37 0.00 84 1016.8
20260902220643 74 292 3.0 4.0 0.00 0.37 0.00 84 1016.9
20260902220053 74 292 2.0 2.0 0.00 0.37 0.37 85 1016.8
20260902215643 74 292 2.0 4.0 0.00 0.37 0.37 85 1016.8
20260902215443 74 270 2.0 2.0 0.00 0.37 0.37 84 1016.8
20260902215243 74 270 2.0 4.0 0.00 0.37 0.37 84 1016.7
20260902215046 75 270 2.0 2.0 0.00 0.37 0.37 84 1016.9
20260902214842 75 270 2.0 2.0 0.00 0.37 0.37 84 1016.9
20260902214642 75 270 2.0 2.0 0.00 0.37 0.37 83 1016.9
20260902214443 75 292 2.0 4.0 0.00 0.37 0.37 83 1016.8
20260902214243 75 292 3.0 4.0 0.00 0.37 0.37 83 1016.8
20260902214049 75 270 2.0 4.0 0.00 0.37 0.37 83 1016.8
20260902213642 75 292 2.0 2.0 0.00 0.37 0.37 83 1016.8
20260902213243 75 292 3.0 4.0 0.00 0.37 0.37 83 1016.8
20260902213049 75 292 3.0 4.0 0.00 0.37 0.37 83 1016.9
20260902212843 75 315 4.0 4.0 0.00 0.37 0.37 83 1016.7
20260902212643 75 270 4.0 4.0 0.00 0.37 0.37 83 1016.7
20260902212443 75 292 4.0 4.0 0.00 0.37 0.37 83 1016.8
20260902212244 75 292 4.0 4.0 0.00 0.37 0.37 83 1016.6
20260902212047 75 292 4.0 4.0 0.00 0.37 0.37 83 1016.7
20260902211843 75 292 4.0 4.0 0.00 0.37 0.37 84 1016.9
20260902211442 75 292 4.0 6.0 0.00 0.37 0.37 84 1016.8
20260902211243 75 292 4.0 4.0 0.00 0.37 0.37 85 1016.9
20260902211049 75 292 4.0 6.0 0.00 0.37 0.37 85 1016.8
20260902210844 74 292 3.0 4.0 0.00 0.37 0.37 85 1016.7
20260902210642 74 292 4.0 7.0 0.00 0.37 0.37 85 1016.6
20260902210443 74 248 3.0 4.0 0.00 0.37 0.37 85 1016.7
20260902210244 74 292 3.0 4.0 0.00 0.37 0.37 85 1016.7
20260902210050 74 292 2.0 4.0 0.00 0.37 0.37 85 1016.6
20260902205843 74 315 2.0 4.0 0.00 0.37 0.37 85 1016.7
20260902205643 74 315 2.0 2.0 0.00 0.37 0.37 85 1016.7
20260902205443 74 315 2.0 4.0 0.00 0.37 0.37 85 1016.8
20260902205243 74 292 2.0 4.0 0.00 0.37 0.37 84 1016.7
20260902205047 74 315 2.0 2.0 0.00 0.37 0.37 84 1016.5
20260902204843 74 315 2.0 4.0 0.00 0.37 0.37 84 1016.6
20260902204642 74 338 2.0 4.0 0.00 0.37 0.37 84 1016.7
20260902204443 74 292 3.0 4.0 0.00 0.37 0.37 84 1016.7
20260902204050 75 315 3.0 4.0 0.00 0.37 0.37 84 1016.7
20260902203643 75 270 2.0 2.0 0.00 0.37 0.37 84 1016.6
20260902203443 75 292 2.0 4.0 0.00 0.37 0.37 83 1016.6
20260902203245 75 292 2.0 4.0 0.00 0.37 0.37 83 1016.6
20260902203051 75 270 2.0 4.0 0.00 0.37 0.37 83 1016.4
20260902202844 75 270 3.0 4.0 0.00 0.37 0.37 83 1016.8
20260902202643 75 315 2.0 2.0 0.00 0.37 0.37 82 1016.7
20260902202444 75 292 2.0 2.0 0.00 0.37 0.37 82 1016.6
20260902202244 75 292 0.0 2.0 0.00 0.37 0.37 81 1016.6
20260902202048 75 292 0.0 0.0 0.00 0.37 0.37 81 1016.7
20260902201843 75 292 0.0 2.0 0.00 0.37 0.37 81 1016.4
20260902201643 75 292 0.0 2.0 0.00 0.37 0.37 81 1016.4
20260902201442 75 270 2.0 2.0 0.00 0.37 0.37 81 1016.7
20260902201050 75 270 4.0 6.0 0.00 0.37 0.37 82 1016.5
20260902200843 75 315 3.0 4.0 0.00 0.37 0.37 83 1016.6
20260902200642 74 292 2.0 2.0 0.00 0.37 0.37 84 1016.5
20260902200443 74 292 2.0 4.0 0.00 0.37 0.37 84 1016.5
20260902200243 74 270 4.0 4.0 0.00 0.37 0.37 85 1016.4
20260902200051 74 292 3.0 4.0 0.00 0.37 0.37 85 1016.4
20260902195843 74 270 4.0 6.0 0.00 0.37 0.37 84 1016.4
20260902195643 74 248 4.0 4.0 0.00 0.37 0.37 84 1016.4
20260902195443 75 270 4.0 6.0 0.00 0.37 0.37 84 1016.4
20260902195244 75 270 4.0 4.0 0.00 0.37 0.37 83 1016.5
20260902195048 75 248 3.0 4.0 0.00 0.37 0.37 83 1016.2
20260902194843 75 270 2.0 2.0 0.00 0.37 0.37 83 1016.3
20260902194645 75 248 2.0 4.0 0.00 0.37 0.37 82 1016.4
20260902194443 75 248 2.0 4.0 0.00 0.37 0.37 82 1016.4
20260902193843 75 270 2.0 4.0 0.00 0.37 0.37 82 1016.4
20260902193643 75 292 2.0 4.0 0.00 0.37 0.37 83 1016.5
20260902193444 75 270 2.0 4.0 0.00 0.37 0.37 83 1016.5
20260902193244 75 270 3.0 4.0 0.00 0.37 0.37 84 1016.5
20260902193050 75 292 4.0 4.0 0.00 0.37 0.37 83 1016.7
20260902192844 75 292 4.0 6.0 0.00 0.37 0.37 83 1016.7
20260902192644 75 292 4.0 6.0 0.00 0.37 0.37 83 1016.7
20260902192444 75 270 4.0 6.0 0.00 0.37 0.37 83 1016.8
20260902192243 75 270 3.0 4.0 0.00 0.37 0.37 83 1016.7
20260902192047 75 292 3.0 4.0 0.00 0.37 0.37 83 1016.5
20260902191843 75 270 2.0 4.0 0.00 0.37 0.37 83 1016.5
20260902191643 75 248 3.0 4.0 0.00 0.37 0.37 83 1016.5
20260902191050 75 225 2.0 2.0 0.00 0.37 0.37 82 1016.2
20260902190843 76 270 2.0 4.0 0.00 0.37 0.37 82 1016.4
20260902190644 76 248 4.0 6.0 0.00 0.37 0.37 81 1016.3
20260902190243 76 248 4.0 7.0 0.00 0.37 0.37 80 1016.4
20260902190050 76 292 5.0 7.0 0.00 0.37 0.37 80 1016.2
20260902185842 76 315 6.0 8.0 0.00 0.37 0.37 80 1016.5
20260902185643 76 292 5.0 8.0 0.00 0.37 0.37 80 1016.2
20260902184842 75 315 4.0 7.0 0.00 0.37 0.37 80 1016.2
20260902184643 75 248 5.0 8.0 0.00 0.37 0.37 81 1016.2
20260902184443 75 292 4.0 7.0 0.00 0.37 0.37 82 1016.3
20260902184243 75 292 4.0 6.0 0.00 0.37 0.37 83 1016.4
20260902183644 74 248 4.0 6.0 0.00 0.37 0.37 84 1016.3
20260902183444 74 315 4.0 4.0 0.00 0.37 0.37 85 1016.4
20260902183243 74 270 3.0 4.0 0.00 0.37 0.37 85 1016.1
20260902183050 74 270 2.0 4.0 0.00 0.37 0.37 84 1016.3
20260902182843 74 292 2.0 4.0 0.00 0.37 0.37 84 1016.2
20260902182445 75 270 1.0 2.0 0.00 0.37 0.37 83 1016.3
20260902182244 75 270 2.0 2.0 0.00 0.37 0.37 83 1016.1
20260902182047 75 248 2.0 4.0 0.00 0.37 0.37 83 1016.0
20260902181843 74 292 2.0 4.0 0.00 0.37 0.37 83 1016.2
20260902181643 74 292 3.0 4.0 0.00 0.37 0.37 83 1016.0
20260902181444 74 270 3.0 4.0 0.00 0.37 0.37 83 1015.9
20260902181243 74 315 4.0 7.0 0.00 0.37 0.37 84 1016.0
20260902181050 74 292 4.0 7.0 0.00 0.37 0.37 85 1015.9
20260902180844 74 292 5.0 7.0 0.00 0.37 0.37 86 1015.9
20260902180444 74 270 3.0 6.0 0.00 0.37 0.37 86 1015.8
20260902180243 74 292 2.0 4.0 0.00 0.37 0.37 86 1016.0
20260902180051 74 292 2.0 2.0 0.00 0.37 0.37 86 1016.0
20260902175843 74 315 2.0 4.0 0.00 0.37 0.37 86 1015.7
20260902175643 74 315 2.0 4.0 0.00 0.37 0.37 86 1015.9
20260902175442 74 315 3.0 4.0 0.00 0.37 0.37 86 1016.0
20260902175243 74 292 2.0 4.0 0.00 0.37 0.37 86 1015.7
20260902175045 74 292 3.0 4.0 0.00 0.37 0.37 86 1016.0
20260902174843 74 315 3.0 4.0 0.00 0.37 0.37 86 1015.8
20260902174643 74 315 2.0 4.0 0.00 0.37 0.37 86 1015.9
20260902174242 74 315 2.0 4.0 0.00 0.37 0.37 85 1016.0
20260902173843 74 315 2.0 4.0 0.00 0.37 0.37 84 1016.0
20260902173711 74 315 1.0 2.0 0.00 0.37 0.37 84 1016.2
20260902173443 74 292 2.0 2.0 0.00 0.37 0.37 84 1015.7
20260902173242 74 292 2.0 4.0 0.00 0.37 0.37 84 1015.8
20260902172844 74 270 3.0 4.0 0.00 0.37 0.37 85 1016.0
20260902172643 74 315 4.0 7.0 0.00 0.37 0.37 85 1016.0
20260902172445 74 292 4.0 6.0 0.00 0.37 0.37 85 1016.0
20260902172242 74 292 4.0 6.0 0.00 0.37 0.37 85 1016.1
20260902172047 74 315 4.0 6.0 0.00 0.37 0.37 85 1016.2
20260902171842 74 292 5.0 7.0 0.00 0.37 0.37 85 1016.3
20260902171642 74 292 5.0 7.0 0.00 0.37 0.37 86 1016.2
20260902171442 74 315 4.0 7.0 0.00 0.37 0.37 86 1016.4
20260902171242 74 270 5.0 7.0 0.00 0.37 0.37 86 1016.3
20260902170842 74 292 5.0 7.0 0.00 0.37 0.37 86 1016.4
20260902170643 74 270 3.0 4.0 0.00 0.37 0.37 86 1016.4
20260902170444 74 292 4.0 6.0 0.00 0.37 0.37 86 1016.3
20260902170243 74 292 3.0 4.0 0.00 0.37 0.37 86 1016.2
20260902170049 74 292 3.0 4.0 0.00 0.37 0.37 86 1016.4
20260902165842 74 270 3.0 6.0 0.00 0.37 0.37 86 1016.4
20260902165643 74 270 4.0 6.0 0.00 0.37 0.37 86 1016.5
20260902165442 74 248 4.0 4.0 0.00 0.37 0.37 86 1016.4
20260902165242 73 248 4.0 4.0 0.00 0.37 0.37 87 1016.4
20260902165046 73 248 4.0 4.0 0.00 0.37 0.37 87 1016.3
20260902164842 73 248 3.0 4.0 0.00 0.37 0.37 88 1016.4
20260902164644 74 270 2.0 4.0 0.00 0.37 0.37 88 1016.5
20260902164444 74 270 2.0 2.0 0.01 0.37 0.37 88 1016.7
20260902164244 74 270 0.0 0.0 0.02 0.37 0.37 89 1016.6
20260902164050 73 270 0.0 0.0 0.04 0.37 0.37 89 1016.6
20260902163643 73 248 1.0 2.0 0.04 0.37 0.37 89 1016.6
20260902163444 73 248 1.0 2.0 0.04 0.37 0.37 89 1016.7
20260902163243 72 248 2.0 4.0 0.04 0.37 0.37 90 1016.7
20260902163050 72 270 2.0 4.0 0.04 0.37 0.37 90 1016.7
20260902162842 72 270 3.0 4.0 0.04 0.37 0.37 90 1016.8
20260902162642 72 270 4.0 4.0 0.04 0.37 0.37 90 1016.9
20260902162444 73 270 6.0 7.0 0.04 0.37 0.37 91 1016.8
20260902162243 72 270 3.0 4.0 0.04 0.37 0.37 91 1016.9
20260902161643 72 270 2.0 4.0 0.04 0.37 0.37 91 1017.1
20260902161444 72 248 4.0 4.0 0.04 0.37 0.37 91 1017.0
20260902161242 72 248 4.0 6.0 0.04 0.37 0.37 91 1017.2
20260902161050 72 270 4.0 6.0 0.04 0.37 0.37 91 1017.2
20260902160842 72 292 2.0 4.0 0.05 0.37 0.37 91 1017.1
20260902160642 72 158 2.0 2.0 0.05 0.37 0.37 92 1017.3
20260902160444 73 202 1.0 2.0 0.07 0.37 0.37 91 1017.4
20260902160243 73 270 0.0 2.0 0.08 0.37 0.37 91 1017.3
20260902160051 73 270 1.0 2.0 0.10 0.37 0.37 91 1017.6
20260902155843 72 270 2.0 2.0 0.11 0.37 0.37 91 1017.5
20260902155641 72 248 2.0 4.0 0.11 0.37 0.37 91 1017.4
20260902155442 73 248 3.0 4.0 0.11 0.37 0.37 90 1017.3
20260902155244 73 248 2.0 4.0 0.12 0.37 0.37 90 1017.2
20260902155046 72 225 2.0 2.0 0.14 0.37 0.37 90 1017.3
20260902154843 72 270 2.0 4.0 0.16 0.37 0.37 90 1017.3
20260902154643 73 180 4.0 9.0 0.15 0.36 0.36 90 1017.5
20260902154442 73 180 4.0 8.0 0.14 0.35 0.35 90 1017.5
20260902154242 73 135 3.0 4.0 0.11 0.33 0.33 90 1017.5
20260902154049 73 202 3.0 6.0 0.11 0.33 0.33 90 1017.4
20260902153843 73 158 4.0 6.0 0.11 0.33 0.33 90 1017.1
20260902153643 72 248 2.0 2.0 0.11 0.33 0.33 89 1017.2
20260902153444 72 292 3.0 4.0 0.11 0.33 0.33 89 1016.9
20260902153243 72 248 4.0 6.0 0.11 0.33 0.33 89 1017.1
20260902152844 72 248 5.0 7.0 0.11 0.33 0.33 89 1017.2
20260902152444 72 248 5.0 8.0 0.11 0.33 0.33 89 1017.0
20260902152242 72 202 4.0 8.0 0.11 0.33 0.33 89 1017.2
20260902152048 73 225 4.0 8.0 0.11 0.33 0.33 89 1017.3
20260902151841 73 202 3.0 4.0 0.11 0.33 0.33 89 1017.4
20260902151644 73 248 2.0 2.0 0.11 0.33 0.33 89 1017.3
20260902151444 73 180 4.0 6.0 0.11 0.33 0.33 89 1017.3
20260902151243 74 158 4.0 4.0 0.11 0.33 0.33 88 1017.2
20260902151050 74 90 2.0 4.0 0.10 0.31 0.31 88 1017.3
20260902150843 73 135 2.0 2.0 0.10 0.31 0.31 87 1017.6
20260902150643 73 248 2.0 4.0 0.09 0.30 0.30 86 1017.3
20260902150445 73 248 2.0 4.0 0.08 0.29 0.29 86 1017.2
20260902150242 74 292 4.0 6.0 0.05 0.27 0.27 85 1017.4
20260902150051 74 270 5.0 7.0 0.05 0.25 0.25 85 1017.4
20260902145841 74 292 4.0 4.0 0.05 0.25 0.25 84 1017.4
20260902145643 74 338 7.0 9.0 0.05 0.25 0.25 83 1017.6
20260902145443 75 315 7.0 9.0 0.05 0.24 0.24 81 1017.6
20260902145047 76 315 6.0 9.0 0.02 0.21 0.21 76 1017.6
20260902144844 76 315 6.0 9.0 0.03 0.21 0.21 76 1017.3
20260902144643 74 292 4.0 7.0 0.03 0.21 0.21 79 1017.0
20260902144444 74 270 7.0 9.0 0.04 0.21 0.21 80 1017.1
20260902144242 74 292 8.0 16.0 0.04 0.21 0.21 82 1016.9
20260902144049 74 270 5.0 8.0 0.05 0.21 0.21 82 1016.8
20260902143843 74 292 4.0 6.0 0.05 0.21 0.21 82 1016.7
20260902143643 73 248 4.0 6.0 0.08 0.21 0.21 83 1016.4
20260902143443 73 248 3.0 4.0 0.11 0.21 0.21 83 1016.3
20260902143244 73 225 4.0 7.0 0.17 0.21 0.21 83 1016.4
20260902143048 72 248 3.0 4.0 0.20 0.21 0.21 84 1016.3
20260902142842 72 225 3.0 7.0 0.21 0.21 0.21 84 1016.4
20260902142444 72 270 4.0 7.0 0.21 0.21 0.21 85 1016.4
20260902142242 72 225 3.0 4.0 0.21 0.21 0.21 85 1016.2
20260902142047 72 225 2.0 2.0 0.21 0.21 0.21 85 1015.8
20260902141843 72 158 2.0 4.0 0.21 0.21 0.21 85 1015.6
20260902141643 72 202 3.0 6.0 0.21 0.21 0.21 85 1015.7
20260902141444 72 180 2.0 4.0 0.21 0.21 0.21 85 1015.9
20260902141051 72 270 4.0 6.0 0.21 0.21 0.21 85 1016.2
20260902140843 72 158 4.0 6.0 0.21 0.21 0.21 85 1016.1
20260902140642 72 225 5.0 9.0 0.21 0.21 0.21 85 1016.1
20260902140443 72 158 5.0 11.0 0.21 0.21 0.21 84 1016.3
20260902140051 72 158 10.0 14.0 0.20 0.20 0.20 82 1016.8